User: anonymous   Login
Location: Newark
(60.1950°N, 25.0308°E)
Time: 04:56:12
(UTC+00:00)
Language:

KKS-1 - Orbit

View from above orbital plane
View from above orbital plane
View from above satellite
View from above satellite

Ground track
Ground track

The orbit data is extracted from the following two-line orbital elements,

1 33499U 09002H   19346.13197094  .00000087  00000-0  20889-4 0  9992
2 33499  98.3338 190.3537 0009383  12.7163 347.4280 14.75487192585245
Epoch (UTC): 12 December 2019 03:10:02
Eccentricity: 0.0009383
inclination: 98.3338°
perigee height: 637 km
apogee height: 650 km
right ascension of ascending node: 190.3537°
argument of perigee: 12.7163°
revolutions per day: 14.75487192
mean anomaly at epoch: 347.4280°
orbit number at epoch: 58524

The dashed part of the orbit path shows where the satellite is in the earth's shadow,  

DLR